,,,PA_Meas_PMT16A,,PR_Meas_QMR101_102,,RH_Meas_QMH101,,SR_Meas_QMS101,,TA_Meas_QMH101,,GenWind,,GenWind,
date,time,status,PA,status,PR,status,RH,status,SR,status,TA,status,DirAvg,status,SpdAvg,
2012-03-21, 00:00:05,VALID,1000.28,VALID,0,VALID,93.3408,VALID,0,VALID,24.8741,VALID,25,VALID,0,
2012-03-21, 00:01:05,VALID,1000.24,VALID,0,VALID,93.3637,VALID,0,VALID,24.8527,VALID,25,VALID,0,
2012-03-21, 00:02:05,VALID,1000.23,VALID,0,VALID,93.3789,VALID,0,VALID,24.8527,VALID,61,VALID,0.848437,
2012-03-21, 00:03:05,VALID,1000.2,VALID,0,VALID,93.3866,VALID,0,VALID,24.8527,VALID,61,VALID,0.904688,
2012-03-21, 00:04:05,VALID,1000.19,VALID,0,VALID,93.4323,VALID,0,VALID,24.8722,VALID,61,VALID,0.791797,
2012-03-21, 00:05:05,VALID,1000.13,VALID,0,VALID,93.4628,VALID,0,VALID,24.8313,VALID,88,VALID,0.823828,
2012-03-21, 00:06:05,VALID,1000.17,VALID,0,VALID,93.4705,VALID,0,VALID,24.8527,VALID,97,VALID,0.261719,
2012-03-21, 00:07:05,VALID,1000.16,VALID,0,VALID,93.4857,VALID,0,VALID,24.8722,VALID,97,VALID,0.207031,
2012-03-21, 00:08:05,VALID,1000.17,VALID,0,VALID,93.4857,VALID,0,VALID,24.8722,VALID,97,VALID,0,
2012-03-21, 00:09:05,VALID,1000.19,VALID,0,VALID,93.4552,VALID,0,VALID,24.8722,VALID,97,VALID,0,
2012-03-21, 00:10:05,VALID,1000.15,VALID,0,VALID,93.4323,VALID,0,VALID,24.8527,VALID,97,VALID,0,
2012-03-21, 00:11:05,VALID,1000.14,VALID,0,VALID,93.44,VALID,0,VALID,24.8527,VALID,97,VALID,0,
2012-03-21, 00:12:05,VALID,1000.12,VALID,0,VALID,93.4705,VALID,0,VALID,24.8527,VALID,97,VALID,0,
2012-03-21, 00:13:05,VALID,1000.09,VALID,0,VALID,93.4934,VALID,0,VALID,24.8722,VALID,97,VALID,0.458203,
2012-03-21, 00:14:05,VALID,1000.08,VALID,0,VALID,93.5163,VALID,0,VALID,24.8527,VALID,97,VALID,0.662109,
2012-03-21, 00:15:05,VALID,1000.09,VALID,0,VALID,93.5544,VALID,0,VALID,24.8527,VALID,97,VALID,0.258594,
2012-03-21, 00:16:05,VALID,1000.06,VALID,0,VALID,93.5391,VALID,0,VALID,24.8546,VALID,97,VALID,0.0113281,
2012-03-21, 00:17:05,VALID,1000.03,VALID,0,VALID,93.5544,VALID,0,VALID,24.8741,VALID,97,VALID,0.0117188,
2012-03-21, 00:18:05,VALID,1000.04,VALID,0,VALID,93.5468,VALID,0,VALID,24.8527,VALID,97,VALID,0,
2012-03-21, 00:19:05,VALID,1000.01,VALID,0,VALID,93.5773,VALID,0,VALID,24.8527,VALID,97,VALID,0,
2012-03-21, 00:20:05,VALID,999.979,VALID,0,VALID,93.5391,VALID,0,VALID,24.8527,VALID,97,VALID,0,
2012-03-21, 00:21:05,VALID,999.988,VALID,0,VALID,93.5544,VALID,0,VALID,24.8508,VALID,97,VALID,0,
2012-03-21, 00:22:05,VALID,999.98,VALID,0,VALID,93.5773,VALID,0.104696,VALID,24.8508,VALID,97,VALID,0,
2012-03-21, 00:23:05,VALID,999.923,VALID,0,VALID,93.6078,VALID,0,VALID,24.8508,VALID,97,VALID,0,
2012-03-21, 00:24:05,VALID,999.938,VALID,0,VALID,93.6078,VALID,0,VALID,24.8703,VALID,97,VALID,0,
2012-03-21, 00:25:05,VALID,999.928,VALID,0,VALID,93.6383,VALID,0,VALID,24.8703,VALID,97,VALID,0.204297,
2012-03-21, 00:26:05,VALID,999.93,VALID,0,VALID,93.707,VALID,0,VALID,24.8703,VALID,97,VALID,0.205469,
2012-03-21, 00:27:05,VALID,999.936,VALID,0,VALID,93.6994,VALID,0,VALID,24.8898,VALID,97,VALID,0.05625,
2012-03-21, 00:28:05,VALID,999.908,VALID,0,VALID,93.7146,VALID,0.104696,VALID,24.8898,VALID,97,VALID,0,
2012-03-21, 00:29:05,VALID,999.917,VALID,0,VALID,93.6841,VALID,0,VALID,24.8898,VALID,97,VALID,0,
2012-03-21, 00:30:05,VALID,999.87,VALID,0,VALID,93.6688,VALID,0,VALID,24.8703,VALID,97,VALID,0,
2012-03-21, 00:31:05,VALID,999.83,VALID,0,VALID,93.6917,VALID,0,VALID,24.8489,VALID,97,VALID,0,
2012-03-21, 00:32:05,VALID,999.806,VALID,0,VALID,93.6917,VALID,0.104696,VALID,24.8703,VALID,97,VALID,0,
2012-03-21, 00:33:05,VALID,999.808,VALID,0,VALID,93.6917,VALID,0,VALID,24.8898,VALID,97,VALID,0.332812,
2012-03-21, 00:34:05,VALID,999.81,VALID,0,VALID,93.707,VALID,0,VALID,24.8898,VALID,97,VALID,0.603906,
2012-03-21, 00:35:05,VALID,999.827,VALID,0,VALID,93.7528,VALID,0.104696,VALID,24.8898,VALID,97,VALID,0.736328,
2012-03-21, 00:36:05,VALID,999.82,VALID,0,VALID,93.7909,VALID,0.104696,VALID,24.9093,VALID,97,VALID,0.421094,
2012-03-21, 00:37:05,VALID,999.83,VALID,0,VALID,93.7909,VALID,0.104696,VALID,24.9093,VALID,97,VALID,0.317187,
2012-03-21, 00:38:05,VALID,999.817,VALID,0,VALID,93.7909,VALID,0.104696,VALID,24.9093,VALID,97,VALID,0.0636719,
2012-03-21, 00:39:05,VALID,999.783,VALID,0,VALID,93.768,VALID,0,VALID,24.9093,VALID,97,VALID,0.000390625,
2012-03-21, 00:40:05,VALID,999.79,VALID,0,VALID,93.7757,VALID,0.104696,VALID,24.9289,VALID,100,VALID,0.721875,
2012-03-21, 00:41:05,VALID,999.763,VALID,0,VALID,93.7604,VALID,0.104696,VALID,24.9289,VALID,99,VALID,0.598047,
2012-03-21, 00:42:05,VALID,999.729,VALID,0,VALID,93.7909,VALID,0,VALID,24.9289,VALID,99,VALID,0.508203,
2012-03-21, 00:43:05,VALID,999.724,VALID,0,VALID,93.7833,VALID,0,VALID,24.9289,VALID,97,VALID,0.645703,
2012-03-21, 00:44:05,VALID,999.694,VALID,0,VALID,93.768,VALID,0,VALID,24.9074,VALID,97,VALID,0.563281,
2012-03-21, 00:45:05,VALID,999.675,VALID,0,VALID,93.7223,VALID,0.104696,VALID,24.9093,VALID,97,VALID,0.516016,
2012-03-21, 00:46:05,VALID,999.668,VALID,0,VALID,93.7299,VALID,0,VALID,24.8898,VALID,61,VALID,0.725,
2012-03-21, 00:47:05,VALID,999.653,VALID,0,VALID,93.7146,VALID,0,VALID,24.8898,VALID,61,VALID,0.609766,
2012-03-21, 00:48:05,VALID,999.641,VALID,0,VALID,93.6917,VALID,0,VALID,24.8508,VALID,61,VALID,0.55,
2012-03-21, 00:49:05,VALID,999.625,VALID,0,VALID,93.646,VALID,0,VALID,24.8313,VALID,61,VALID,0.701172,
2012-03-21, 00:50:05,VALID,999.591,VALID,0,VALID,93.6078,VALID,0,VALID,24.8332,VALID,61,VALID,0.603516,
2012-03-21, 00:51:05,VALID,999.553,VALID,0,VALID,93.6154,VALID,0,VALID,24.8136,VALID,61,VALID,0.73125,
2012-03-21, 00:52:05,VALID,999.535,VALID,0,VALID,93.6078,VALID,0,VALID,24.7941,VALID,61,VALID,0.515234,
2012-03-21, 00:53:05,VALID,999.544,VALID,0,VALID,93.6154,VALID,0,VALID,24.7746,VALID,61,VALID,0.536719,
2012-03-21, 00:54:05,VALID,999.558,VALID,0,VALID,93.6154,VALID,0,VALID,24.7746,VALID,61,VALID,0.557422,
2012-03-21, 00:55:05,VALID,999.534,VALID,0,VALID,93.6154,VALID,0,VALID,24.7551,VALID,61,VALID,0.764453,
2012-03-21, 00:56:05,VALID,999.528,VALID,0,VALID,93.6612,VALID,0,VALID,24.7356,VALID,43,VALID,0.861719,
2012-03-21, 00:57:05,VALID,999.536,VALID,0,VALID,93.707,VALID,0,VALID,24.7356,VALID,43,VALID,0.797266,
2012-03-21, 00:58:05,VALID,999.54,VALID,0,VALID,93.7451,VALID,0,VALID,24.7356,VALID,43,VALID,0.746484,
2012-03-21, 00:59:05,VALID,999.55,VALID,0,VALID,93.7757,VALID,0,VALID,24.7356,VALID,43,VALID,0.624609,
2012-03-21, 01:00:05,VALID,999.553,VALID,0,VALID,93.8062,VALID,0,VALID,24.716,VALID,43,VALID,0.587109,
2012-03-21, 01:01:05,VALID,999.532,VALID,0,VALID,93.7985,VALID,0,VALID,24.6946,VALID,43,VALID,0.384766,
2012-03-21, 01:02:05,VALID,999.549,VALID,0,VALID,93.7833,VALID,0,VALID,24.716,VALID,43,VALID,0.00195313,
2012-03-21, 01:03:05,VALID,999.566,VALID,0,VALID,93.7604,VALID,0,VALID,24.6965,VALID,43,VALID,0,
2012-03-21, 01:04:05,VALID,999.515,VALID,0,VALID,93.7757,VALID,0,VALID,24.6965,VALID,43,VALID,0,
2012-03-21, 01:05:05,VALID,999.479,VALID,0,VALID,93.7833,VALID,0,VALID,24.6965,VALID,43,VALID,0,
2012-03-21, 01:06:05,VALID,999.461,VALID,0,VALID,93.8138,VALID,0,VALID,24.6965,VALID,43,VALID,0,
2012-03-21, 01:07:05,VALID,999.453,VALID,0,VALID,93.8367,VALID,0,VALID,24.6965,VALID,43,VALID,0.378125,
2012-03-21, 01:08:05,VALID,999.441,VALID,0,VALID,93.8291,VALID,0,VALID,24.6965,VALID,43,VALID,0.0140625,
2012-03-21, 01:09:04,VALID,999.441,VALID,0,VALID,93.8291,VALID,0,VALID,24.6946,VALID,43,VALID,0,
2012-03-21, 01:10:04,VALID,999.382,VALID,0,VALID,93.8367,VALID,0,VALID,24.716,VALID,43,VALID,0,
2012-03-21, 01:11:04,VALID,999.348,VALID,0,VALID,93.8367,VALID,0,VALID,24.6965,VALID,43,VALID,0,
2012-03-21, 01:12:04,VALID,999.309,VALID,0,VALID,93.8291,VALID,0,VALID,24.6965,VALID,43,VALID,0.562891,
2012-03-21, 01:13:04,VALID,999.327,VALID,0,VALID,93.7909,VALID,0,VALID,24.677,VALID,126,VALID,0.874219,
2012-03-21, 01:14:04,VALID,999.305,VALID,0,VALID,93.8443,VALID,0,VALID,24.6965,VALID,142,VALID,0.974219,
2012-03-21, 01:15:04,VALID,999.31,VALID,0,VALID,93.8672,VALID,0,VALID,24.6965,VALID,142,VALID,1.00039,
2012-03-21, 01:16:04,VALID,999.316,VALID,0,VALID,93.8977,VALID,0,VALID,24.716,VALID,146,VALID,1.13711,
2012-03-21, 01:17:04,VALID,999.351,VALID,0,VALID,93.8672,VALID,0,VALID,24.6751,VALID,150,VALID,1.22812,
2012-03-21, 01:18:04,VALID,999.341,VALID,0,VALID,93.8596,VALID,0,VALID,24.716,VALID,156,VALID,1.50391,
2012-03-21, 01:19:04,VALID,999.381,VALID,0,VALID,93.8748,VALID,0,VALID,24.7356,VALID,156,VALID,1.19922,
2012-03-21, 01:20:04,VALID,999.416,VALID,0,VALID,93.913,VALID,0.104696,VALID,24.7532,VALID,156,VALID,1.05117,
2012-03-21, 01:21:04,VALID,999.454,VALID,0,VALID,93.9054,VALID,0,VALID,24.7123,VALID,160,VALID,0.924609,
2012-03-21, 01:22:04,VALID,999.503,VALID,0,VALID,93.8748,VALID,0.104696,VALID,24.7318,VALID,175,VALID,1.09375,
2012-03-21, 01:23:04,VALID,999.539,VALID,0,VALID,93.8748,VALID,0.104696,VALID,24.7532,VALID,179,VALID,0.802734,
2012-03-21, 01:24:04,VALID,999.586,VALID,0,VALID,93.8596,VALID,0.104696,VALID,24.7727,VALID,174,VALID,0.713672,
2012-03-21, 01:25:04,VALID,999.642,VALID,0,VALID,93.852,VALID,0.104696,VALID,24.7922,VALID,168,VALID,0.920703,
2012-03-21, 01:26:04,VALID,999.675,VALID,0,VALID,93.7757,VALID,0,VALID,24.7727,VALID,180,VALID,0.792578,
2012-03-21, 01:27:04,VALID,999.676,VALID,0,VALID,93.7833,VALID,0,VALID,24.7922,VALID,187,VALID,0.977344,
2012-03-21, 01:28:04,VALID,999.714,VALID,0,VALID,93.7451,VALID,0,VALID,24.8117,VALID,178,VALID,0.8125,
2012-03-21, 01:29:04,VALID,999.704,VALID,0,VALID,93.6765,VALID,0,VALID,24.8117,VALID,174,VALID,0.600781,
2012-03-21, 01:30:04,VALID,999.746,VALID,0,VALID,93.5926,VALID,0.104696,VALID,24.8313,VALID,162,VALID,0.491406,
2012-03-21, 01:31:04,VALID,999.71,VALID,0,VALID,93.5086,VALID,0.104696,VALID,24.8117,VALID,147,VALID,0.7875,
2012-03-21, 01:32:04,VALID,999.691,VALID,0,VALID,93.3866,VALID,0.104696,VALID,24.7922,VALID,148,VALID,0.622266,
2012-03-21, 01:33:04,VALID,999.697,VALID,0,VALID,93.3103,VALID,0.104696,VALID,24.7922,VALID,147,VALID,0.925781,
2012-03-21, 01:34:04,VALID,999.689,VALID,0,VALID,93.234,VALID,0.104696,VALID,24.7922,VALID,164,VALID,1.36758,
2012-03-21, 01:35:04,VALID,999.67,VALID,0,VALID,93.295,VALID,0,VALID,24.835,VALID,161,VALID,1.11016,
2012-03-21, 01:36:04,VALID,999.689,VALID,0,VALID,93.356,VALID,0,VALID,24.8332,VALID,202,VALID,1.18125,
2012-03-21, 01:37:04,VALID,999.661,VALID,0,VALID,93.3713,VALID,0,VALID,24.8332,VALID,221,VALID,1.52148,
2012-03-21, 01:38:04,VALID,999.69,VALID,0,VALID,93.3255,VALID,0,VALID,24.8527,VALID,213,VALID,1.57461,
2012-03-21, 01:39:04,VALID,999.662,VALID,0,VALID,93.4094,VALID,0,VALID,24.8722,VALID,219,VALID,1.32187,
2012-03-21, 01:40:04,VALID,999.665,VALID,0,VALID,93.4857,VALID,0,VALID,24.9112,VALID,207,VALID,1.6625,
2012-03-21, 01:41:04,VALID,999.694,VALID,0,VALID,93.5468,VALID,0,VALID,24.9308,VALID,218,VALID,1.3082,
2012-03-21, 01:42:04,VALID,999.703,VALID,0,VALID,93.5849,VALID,0,VALID,24.9308,VALID,231,VALID,1.62383,
2012-03-21, 01:43:04,VALID,999.753,VALID,0,VALID,93.6231,VALID,0,VALID,24.9308,VALID,228,VALID,1.48672,
2012-03-21, 01:44:04,VALID,999.785,VALID,0,VALID,93.6688,VALID,0,VALID,24.9093,VALID,242,VALID,1.9043,
2012-03-21, 01:45:04,VALID,999.826,VALID,0,VALID,93.6612,VALID,0,VALID,24.9112,VALID,249,VALID,1.44531,
2012-03-21, 01:46:04,VALID,999.896,VALID,0,VALID,93.6612,VALID,0,VALID,24.9112,VALID,242,VALID,2.12539,
2012-03-21, 01:47:04,VALID,999.929,VALID,0,VALID,93.6917,VALID,0,VALID,24.8917,VALID,266,VALID,1.11992,
2012-03-21, 01:48:04,VALID,999.862,VALID,0.5,VALID,93.6841,VALID,0,VALID,24.8917,VALID,226,VALID,1.07344,
2012-03-21, 01:49:04,VALID,999.804,VALID,0,VALID,93.6002,VALID,0,VALID,24.8527,VALID,242,VALID,1.29727,
2012-03-21, 01:50:04,VALID,999.812,VALID,0,VALID,93.4476,VALID,0,VALID,24.7941,VALID,208,VALID,1.39492,
2012-03-21, 01:51:04,VALID,999.764,VALID,0,VALID,93.1653,VALID,0,VALID,24.7765,VALID,199,VALID,1.96406,
2012-03-21, 01:52:04,VALID,999.785,VALID,0,VALID,92.6388,VALID,0,VALID,24.7356,VALID,257,VALID,1.40703,
2012-03-21, 01:53:04,VALID,999.784,VALID,0.5,VALID,92.471,VALID,0,VALID,24.7356,VALID,283,VALID,0.884375,
2012-03-21, 01:54:04,VALID,999.799,VALID,0,VALID,92.1506,VALID,0,VALID,24.7356,VALID,256,VALID,1.48633,
2012-03-21, 01:55:04,VALID,999.803,VALID,0,VALID,91.9445,VALID,0,VALID,24.716,VALID,264,VALID,1.44258,
2012-03-21, 01:56:04,VALID,999.821,VALID,0,VALID,92.0132,VALID,0,VALID,24.6965,VALID,282,VALID,1.2668,
2012-03-21, 01:57:04,VALID,999.805,VALID,0,VALID,92.1124,VALID,0,VALID,24.677,VALID,290,VALID,1.68906,
2012-03-21, 01:58:04,VALID,999.771,VALID,0,VALID,92.2497,VALID,0,VALID,24.6575,VALID,262,VALID,0.820703,
2012-03-21, 01:59:04,VALID,999.732,VALID,0,VALID,92.4481,VALID,0,VALID,24.638,VALID,271,VALID,0.375,
2012-03-21, 02:00:04,VALID,999.714,VALID,0.5,VALID,92.6923,VALID,0,VALID,24.6594,VALID,290,VALID,1.42461,
2012-03-21, 02:01:04,VALID,999.676,VALID,0,VALID,92.944,VALID,0,VALID,24.638,VALID,304,VALID,0.540234,
2012-03-21, 02:02:04,VALID,999.698,VALID,0,VALID,93.089,VALID,0,VALID,24.5989,VALID,307,VALID,0.58125,
2012-03-21, 02:03:04,VALID,999.661,VALID,0.5,VALID,93.1805,VALID,0,VALID,24.6184,VALID,285,VALID,0.546094,
2012-03-21, 02:04:04,VALID,999.689,VALID,0,VALID,93.2492,VALID,0,VALID,24.5989,VALID,299,VALID,0.728906,
2012-03-21, 02:05:04,VALID,999.651,VALID,0.5,VALID,93.2111,VALID,0,VALID,24.5599,VALID,325,VALID,0.895312,
2012-03-21, 02:06:04,VALID,999.62,VALID,0,VALID,92.883,VALID,0,VALID,24.5013,VALID,309,VALID,1.35742,
2012-03-21, 02:07:04,VALID,999.588,VALID,0.5,VALID,92.5854,VALID,0,VALID,24.4428,VALID,339,VALID,0.378516,
2012-03-21, 02:08:04,VALID,999.536,VALID,0.5,VALID,92.532,VALID,0,VALID,24.4037,VALID,340,VALID,0.619922,
2012-03-21, 02:09:04,VALID,999.531,VALID,0,VALID,92.4634,VALID,0,VALID,24.3452,VALID,306,VALID,1.2832,
2012-03-21, 02:10:04,VALID,999.513,VALID,0.5,VALID,92.5549,VALID,0,VALID,24.3062,VALID,338,VALID,0.632422,
2012-03-21, 02:11:04,VALID,999.5,VALID,0,VALID,92.7228,VALID,0,VALID,24.2866,VALID,341,VALID,1.00781,
2012-03-21, 02:12:04,VALID,999.523,VALID,0,VALID,92.6617,VALID,0,VALID,24.2281,VALID,325,VALID,1.18945,
2012-03-21, 02:13:04,VALID,999.525,VALID,0.5,VALID,92.4786,VALID,0,VALID,24.1909,VALID,324,VALID,0.860937,
2012-03-21, 02:14:04,VALID,999.552,VALID,0,VALID,92.6312,VALID,0,VALID,24.1305,VALID,326,VALID,0.797656,
2012-03-21, 02:15:04,VALID,999.573,VALID,0,VALID,92.8601,VALID,0,VALID,24.111,VALID,357,VALID,0.870703,
2012-03-21, 02:16:04,VALID,999.583,VALID,0.5,VALID,92.9593,VALID,0,VALID,24.0915,VALID,339,VALID,1.06914,
2012-03-21, 02:17:04,VALID,999.596,VALID,0,VALID,93.089,VALID,0,VALID,24.0701,VALID,291,VALID,0.776563,
2012-03-21, 02:18:04,VALID,999.634,VALID,0.5,VALID,93.2187,VALID,0,VALID,24.0525,VALID,287,VALID,0.617188,
2012-03-21, 02:19:04,VALID,999.656,VALID,0,VALID,93.2568,VALID,0,VALID,24.0134,VALID,302,VALID,0.559375,
2012-03-21, 02:20:04,VALID,999.629,VALID,0,VALID,93.356,VALID,0,VALID,24.0116,VALID,294,VALID,0.51875,
2012-03-21, 02:21:04,VALID,999.648,VALID,0.5,VALID,93.295,VALID,0,VALID,23.9744,VALID,264,VALID,1.34102,
2012-03-21, 02:22:04,VALID,999.667,VALID,0,VALID,93.0356,VALID,0,VALID,23.8963,VALID,278,VALID,0.712109,
2012-03-21, 02:23:04,VALID,999.681,VALID,0,VALID,93.0585,VALID,0,VALID,23.8963,VALID,277,VALID,0.664063,
2012-03-21, 02:24:04,VALID,999.668,VALID,0,VALID,93.1958,VALID,0,VALID,23.8768,VALID,277,VALID,0.280078,
2012-03-21, 02:25:04,VALID,999.675,VALID,0,VALID,93.3331,VALID,0,VALID,23.8555,VALID,277,VALID,0.550781,
2012-03-21, 02:26:04,VALID,999.765,VALID,0,VALID,93.4476,VALID,0,VALID,23.8768,VALID,277,VALID,0.526953,
2012-03-21, 02:27:04,VALID,999.844,VALID,0,VALID,93.5239,VALID,0,VALID,23.8768,VALID,277,VALID,0.591016,
2012-03-21, 02:28:04,VALID,999.924,VALID,0.5,VALID,93.6154,VALID,0,VALID,23.8768,VALID,280,VALID,1.04609,
2012-03-21, 02:29:04,VALID,999.949,VALID,0,VALID,93.707,VALID,0,VALID,23.8768,VALID,283,VALID,0.902734,
2012-03-21, 02:30:04,VALID,999.887,VALID,0,VALID,93.7757,VALID,0,VALID,23.9159,VALID,306,VALID,0.701172,
2012-03-21, 02:31:04,VALID,999.867,VALID,0,VALID,93.8214,VALID,0,VALID,23.9159,VALID,311,VALID,0.145703,
2012-03-21, 02:32:04,VALID,999.912,VALID,0,VALID,93.9054,VALID,0,VALID,23.9159,VALID,309,VALID,0.702344,
2012-03-21, 02:33:04,VALID,999.884,VALID,0,VALID,93.9435,VALID,0,VALID,23.8945,VALID,310,VALID,0.302734,
2012-03-21, 02:34:04,VALID,999.896,VALID,0,VALID,93.974,VALID,0,VALID,23.9159,VALID,310,VALID,0.0277344,
2012-03-21, 02:35:04,VALID,999.895,VALID,0,VALID,94.0045,VALID,0,VALID,23.914,VALID,310,VALID,0.183984,
2012-03-21, 02:36:04,VALID,999.888,VALID,0,VALID,94.0351,VALID,0,VALID,23.9336,VALID,360,VALID,0.611328,
2012-03-21, 02:37:04,VALID,999.978,VALID,0.5,VALID,94.0503,VALID,0,VALID,23.9354,VALID,360,VALID,0.457031,
2012-03-21, 02:38:04,VALID,1000.03,VALID,0,VALID,94.0198,VALID,0,VALID,23.9159,VALID,360,VALID,1.01328,
2012-03-21, 02:39:04,VALID,1000.01,VALID,0,VALID,94.0045,VALID,0,VALID,23.9354,VALID,6,VALID,1.22227,
2012-03-21, 02:40:04,VALID,1000.04,VALID,0,VALID,93.9359,VALID,0,VALID,23.8945,VALID,10,VALID,1.73203,
2012-03-21, 02:41:04,VALID,1000.09,VALID,0,VALID,93.8596,VALID,0,VALID,23.8963,VALID,339,VALID,1.62344,
2012-03-21, 02:42:04,VALID,1000.1,VALID,0,VALID,93.8138,VALID,0,VALID,23.836,VALID,350,VALID,1.83047,
2012-03-21, 02:43:04,VALID,1000.07,VALID,0,VALID,93.8214,VALID,0,VALID,23.836,VALID,4,VALID,1.50898,
2012-03-21, 02:44:04,VALID,1000.01,VALID,0,VALID,93.768,VALID,0,VALID,23.7988,VALID,22,VALID,1.39414,
2012-03-21, 02:45:04,VALID,1000.02,VALID,0,VALID,93.7146,VALID,0,VALID,23.7988,VALID,13,VALID,1.49063,
2012-03-21, 02:46:04,VALID,1000.01,VALID,0,VALID,93.6917,VALID,0,VALID,23.7579,VALID,5,VALID,1.72461,
2012-03-21, 02:47:04,VALID,1000.02,VALID,0.5,VALID,93.7375,VALID,0,VALID,23.7384,VALID,11,VALID,1.70352,
2012-03-21, 02:48:04,VALID,1000.04,VALID,0,VALID,93.768,VALID,0,VALID,23.7207,VALID,22,VALID,1.23711,
2012-03-21, 02:49:04,VALID,1000.04,VALID,0,VALID,93.7604,VALID,0,VALID,23.7012,VALID,24,VALID,1.78633,
2012-03-21, 02:50:04,VALID,1000.09,VALID,0,VALID,93.8062,VALID,0,VALID,23.6817,VALID,4,VALID,1.62891,
2012-03-21, 02:51:04,VALID,1000.08,VALID,0,VALID,93.8672,VALID,0,VALID,23.6622,VALID,3,VALID,0.938672,
2012-03-21, 02:52:04,VALID,1000.12,VALID,0,VALID,93.8977,VALID,0,VALID,23.6427,VALID,16,VALID,0.802734,
2012-03-21, 02:53:04,VALID,1000.09,VALID,0,VALID,93.9206,VALID,0,VALID,23.6427,VALID,21,VALID,0.614453,
2012-03-21, 02:54:04,VALID,1000.1,VALID,0,VALID,93.9588,VALID,0,VALID,23.6019,VALID,35,VALID,0.815625,
2012-03-21, 02:55:04,VALID,1000.12,VALID,0,VALID,93.9969,VALID,0,VALID,23.6232,VALID,1,VALID,0.811719,
2012-03-21, 02:56:04,VALID,1000.16,VALID,0,VALID,93.9893,VALID,0,VALID,23.6036,VALID,346,VALID,0.751953,
2012-03-21, 02:57:04,VALID,1000.17,VALID,0.5,VALID,94.0427,VALID,0,VALID,23.6232,VALID,348,VALID,1.18867,
2012-03-21, 02:58:04,VALID,1000.16,VALID,0,VALID,94.0656,VALID,0,VALID,23.6036,VALID,5,VALID,1.17305,
2012-03-21, 02:59:04,VALID,1000.2,VALID,0,VALID,94.0656,VALID,0,VALID,23.6232,VALID,351,VALID,1.0668,
2012-03-21, 03:00:04,VALID,1000.25,VALID,0,VALID,94.0961,VALID,0,VALID,23.5823,VALID,329,VALID,0.918359,
2012-03-21, 03:01:04,VALID,1000.23,VALID,0,VALID,94.1343,VALID,0,VALID,23.6036,VALID,334,VALID,0.971094,
2012-03-21, 03:02:04,VALID,1000.27,VALID,0,VALID,94.1343,VALID,0,VALID,23.5823,VALID,359,VALID,1.02852,
2012-03-21, 03:03:04,VALID,1000.24,VALID,0,VALID,94.1419,VALID,0,VALID,23.6036,VALID,356,VALID,1.3582,
2012-03-21, 03:04:04,VALID,1000.21,VALID,0,VALID,94.119,VALID,0,VALID,23.5841,VALID,333,VALID,0.857813,
2012-03-21, 03:05:04,VALID,1000.18,VALID,0,VALID,94.0885,VALID,0,VALID,23.5628,VALID,5,VALID,1.18984,
2012-03-21, 03:06:04,VALID,1000.13,VALID,0,VALID,94.0885,VALID,0,VALID,23.5646,VALID,349,VALID,0.841797,
2012-03-21, 03:07:04,VALID,1000.09,VALID,0,VALID,94.0808,VALID,0,VALID,23.5646,VALID,342,VALID,0.574219,
2012-03-21, 03:08:04,VALID,1000.06,VALID,0,VALID,94.0732,VALID,0,VALID,23.5646,VALID,317,VALID,0.486328,
2012-03-21, 03:09:04,VALID,1000.16,VALID,0,VALID,94.1037,VALID,0,VALID,23.5433,VALID,317,VALID,0.294922,
2012-03-21, 03:10:04,VALID,1000,VALID,0,VALID,94.1266,VALID,0,VALID,23.5646,VALID,331,VALID,0.672266,
2012-03-21, 03:11:04,VALID,999.845,VALID,0,VALID,93.9969,VALID,0,VALID,23.5256,VALID,18,VALID,1.4,
2012-03-21, 03:12:04,VALID,999.843,VALID,0,VALID,93.9206,VALID,0,VALID,23.5043,VALID,7,VALID,1.63047,
2012-03-21, 03:13:04,VALID,999.844,VALID,0,VALID,93.8214,VALID,0,VALID,23.5061,VALID,356,VALID,2.43203,
2012-03-21, 03:14:04,VALID,999.825,VALID,0,VALID,93.6765,VALID,0,VALID,23.5061,VALID,4,VALID,0.757813,
2012-03-21, 03:15:04,VALID,999.793,VALID,0.5,VALID,93.562,VALID,0,VALID,23.5256,VALID,316,VALID,1.06602,
2012-03-21, 03:16:04,VALID,999.755,VALID,0,VALID,93.5544,VALID,0,VALID,23.5256,VALID,307,VALID,0.338281,
2012-03-21, 03:17:04,VALID,999.709,VALID,0,VALID,93.5849,VALID,0,VALID,23.5256,VALID,307,VALID,0,
2012-03-21, 03:18:04,VALID,999.71,VALID,0,VALID,93.5926,VALID,0,VALID,23.5061,VALID,41,VALID,1.20938,
2012-03-21, 03:19:04,VALID,999.725,VALID,0,VALID,93.5926,VALID,0,VALID,23.5061,VALID,52,VALID,0.949219,
2012-03-21, 03:20:04,VALID,999.748,VALID,0,VALID,93.5926,VALID,0,VALID,23.5061,VALID,74,VALID,0.671875,
2012-03-21, 03:21:04,VALID,999.749,VALID,0,VALID,93.6536,VALID,0,VALID,23.4866,VALID,80,VALID,0.928125,
2012-03-21, 03:22:04,VALID,999.731,VALID,0,VALID,93.6994,VALID,0,VALID,23.4848,VALID,80,VALID,0.741406,
2012-03-21, 03:23:04,VALID,999.725,VALID,0,VALID,93.7833,VALID,0,VALID,23.4653,VALID,70,VALID,0.782031,
2012-03-21, 03:24:04,VALID,999.722,VALID,0,VALID,93.7528,VALID,0,VALID,23.4671,VALID,79,VALID,0.992188,
2012-03-21, 03:25:04,VALID,999.708,VALID,0,VALID,93.7375,VALID,0,VALID,23.4475,VALID,79,VALID,0.575391,
2012-03-21, 03:26:04,VALID,999.704,VALID,0,VALID,93.7909,VALID,0,VALID,23.4671,VALID,77,VALID,0.923828,
2012-03-21, 03:27:04,VALID,999.752,VALID,0.5,VALID,93.8977,VALID,0,VALID,23.4458,VALID,84,VALID,0.832422,
2012-03-21, 03:28:04,VALID,999.743,VALID,0,VALID,93.9817,VALID,0,VALID,23.4475,VALID,86,VALID,0.315625,
2012-03-21, 03:29:04,VALID,999.79,VALID,0,VALID,94.058,VALID,0,VALID,23.4458,VALID,86,VALID,0.467969,
2012-03-21, 03:30:04,VALID,999.78,VALID,0,VALID,94.1114,VALID,0,VALID,23.4458,VALID,266,VALID,0.519141,
2012-03-21, 03:31:04,VALID,999.747,VALID,0,VALID,94.1343,VALID,0,VALID,23.4866,VALID,254,VALID,0.683594,
2012-03-21, 03:32:04,VALID,999.721,VALID,0,VALID,94.2029,VALID,0,VALID,23.4848,VALID,222,VALID,0.522656,
2012-03-21, 03:33:04,VALID,999.688,VALID,0,VALID,94.2411,VALID,0,VALID,23.5043,VALID,215,VALID,0.803516,
2012-03-21, 03:34:04,VALID,999.722,VALID,0,VALID,94.264,VALID,0,VALID,23.5043,VALID,215,VALID,0.53125,
2012-03-21, 03:35:04,VALID,999.714,VALID,0,VALID,94.3174,VALID,0,VALID,23.5238,VALID,249,VALID,0.670703,
2012-03-21, 03:36:04,VALID,999.67,VALID,0,VALID,94.3326,VALID,0,VALID,23.5646,VALID,222,VALID,0.817969,
2012-03-21, 03:37:04,VALID,999.684,VALID,0,VALID,94.3479,VALID,0,VALID,23.5433,VALID,222,VALID,0.434766,
2012-03-21, 03:38:04,VALID,999.694,VALID,0.5,VALID,94.3479,VALID,0,VALID,23.5646,VALID,225,VALID,0.504687,
2012-03-21, 03:39:04,VALID,999.685,VALID,0,VALID,94.3708,VALID,0,VALID,23.5646,VALID,225,VALID,0.765625,
2012-03-21, 03:40:04,VALID,999.696,VALID,0,VALID,94.3708,VALID,0,VALID,23.5646,VALID,231,VALID,1.01445,
2012-03-21, 03:41:04,VALID,999.707,VALID,0,VALID,94.3555,VALID,0,VALID,23.5646,VALID,255,VALID,0.770312,
2012-03-21, 03:42:04,VALID,999.697,VALID,0,VALID,94.3555,VALID,0,VALID,23.5451,VALID,248,VALID,0.399219,
2012-03-21, 03:43:04,VALID,999.727,VALID,0,VALID,94.3708,VALID,0,VALID,23.5646,VALID,245,VALID,0.580078,
2012-03-21, 03:44:04,VALID,999.701,VALID,0,VALID,94.3784,VALID,0,VALID,23.5646,VALID,219,VALID,0.420312,
2012-03-21, 03:45:04,VALID,999.672,VALID,0,VALID,94.3937,VALID,0,VALID,23.5646,VALID,219,VALID,0.812891,
2012-03-21, 03:46:04,VALID,999.673,VALID,0,VALID,94.4089,VALID,0,VALID,23.5646,VALID,199,VALID,0.813281,